Wind_Speed
41 44 47 50 53 55 57 59 63 68 75 81 84 88 93 97 100 102 106 108 110 114 113 112 107 92 81 69 52 42 45 49 48 59 59 58 55 50 48 49 52 52 51
46 49 53 56 58 58 61 64 67 72 78 84 90 94 97 101 105 106 111 113 116 117 120 118 110 94 87 73 61 47 43 47 51 57 63 62 58 58 48 56 56 55 52
49 53 56 58 61 63 65 68 72 75 80 87 94 97 102 107 109 113 115 119 120 124 122 121 111 100 90 82 71 58 48 47 50 55 61 64 66 62 53 47 60 61 57
52 55 58 62 66 68 71 74 77 79 84 93 99 103 106 111 115 118 120 123 127 129 128 127 114 100 94 85 77 69 62 53 53 53 57 61 63 64 59 49 51 56 58
56 58 62 65 69 73 76 79 83 85 91 98 104 108 112 116 119 123 126 128 129 133 133 127 111 101 93 87 82 76 66 60 55 55 56 60 63 64 62 60 58 60 65
59 63 67 70 74 77 81 84 86 91 97 104 110 113 118 121 125 127 131 135 136 138 136 129 116 104 98 92 84 74 69 61 56 57 53 55 54 59 60 60 61 63 67
67 71 72 75 79 81 85 89 92 96 103 108 113 117 121 127 129 133 137 139 142 142 139 127 114 105 99 94 87 76 68 62 56 49 65 71 64 60 58 63 68 72 67
74 75 77 80 85 88 90 93 97 102 106 113 117 121 126 130 135 140 143 145 146 144 139 125 112 104 96 88 83 78 71 63 58 57 52 68 72 71 64 64 68 66 60
78 79 83 85 90 93 94 98 101 106 111 117 122 126 129 132 139 145 148 150 149 143 132 117 108 99 91 82 77 73 70 66 62 60 59 61 75 78 72 67 66 63 55
82 86 89 92 94 96 98 102 105 110 115 120 122 129 134 139 147 153 152 154 153 140 124 111 102 92 88 81 74 68 64 66 64 63 63 68 69 75 71 70 61 61 57
88 90 93 95 97 100 103 107 110 115 119 122 127 132 137 145 150 157 157 157 148 130 115 105 94 87 83 77 71 67 64 63 63 63 61 62 68 69 66 65 58 59 54
93 96 98 99 102 106 108 112 116 121 124 127 131 135 141 148 156 157 160 152 140 122 108 98 89 82 75 72 65 63 60 58 57 59 59 61 61 65 59 59 57 56 51
99 100 102 105 108 110 113 116 122 125 127 131 138 141 145 152 158 160 160 142 128 112 99 90 83 76 71 67 65 61 58 56 53 53 56 56 55 54 55 54 54 54 52
103 105 107 110 111 115 118 123 126 130 132 135 141 145 151 156 160 161 153 137 119 106 94 86 78 74 68 64 61 58 56 52 50 49 51 55 54 50 51 49 51 54 50
109 110 111 112 114 118 123 127 129 135 138 141 145 150 155 161 163 163 150 131 112 101 88 80 75 71 65 62 58 55 53 50 49 48 47 49 49 49 50 47 50 53 51
113 112 114 115 119 123 128 131 135 138 144 148 152 156 160 161 162 159 138 121 106 95 84 78 74 70 64 60 56 51 49 46 44 45 44 43 43 41 43 44 47 48 50
116 117 118 120 125 129 133 133 138 145 149 153 157 161 163 167 159 148 125 112 101 89 80 76 73 69 64 59 55 51 49 44 40 41 39 40 37 36 37 38 40 43 48
121 121 122 126 131 132 137 141 144 149 152 158 165 165 161 157 160 138 117 105 95 83 79 75 72 65 59 55 51 47 43 41 39 39 39 39 39 38 37 37 39 43 46
123 126 130 134 137 139 143 145 147 154 158 162 166 168 167 162 148 129 112 100 89 81 77 72 67 59 53 49 44 41 37 36 35 36 37 38 37 37 37 39 39 41 46
132 136 138 139 142 148 148 150 153 159 162 166 166 167 160 147 132 115 104 93 85 78 74 70 63 56 52 47 42 39 38 36 33 33 35 37 36 36 36 39 41 43 46
139 142 143 145 149 148 152 156 159 160 164 168 166 164 149 135 117 109 96 87 81 76 71 68 60 53 49 46 44 42 40 38 36 32 32 36 36 35 35 37 40 42 47
145 147 149 149 150 151 156 160 159 163 166 166 164 149 130 117 107 101 90 84 79 74 70 65 59 52 47 45 45 43 40 39 36 35 34 34 34 34 35 38 40 43 46
151 154 152 153 155 158 162 161 165 164 166 168 151 134 122 109 101 94 86 81 77 72 69 63 56 50 47 43 41 39 39 38 35 34 32 34 34 34 35 37 40 44 47
154 155 155 158 161 163 163 166 165 165 159 147 135 119 105 100 93 87 83 78 74 70 67 60 54 50 47 43 40 35 34 34 33 31 30 30 34 35 35 36 40 44 46
157 153 159 160 158 160 159 162 157 148 139 128 116 104 97 91 86 85 81 75 71 68 65 57 53 50 47 42 38 34 31 31 29 28 28 29 31 35 37 37 38 42 43
156 153 157 158 158 160 157 148 145 137 121 112 103 95 90 85 82 81 77 71 68 64 60 54 51 49 46 42 36 31 28 28 27 24 25 28 29 32 36 38 38 41 43
Wind_Direction
334 335 337 337 339 339 341 342 343 341 342 344 342 343 344 343 342 341 341 340 340 342 342 342 340 340 338 335 327 316 300 295 295 296 298 296 294 296 297 297 296 300 301
332 334 336 336 336 336 337 339 340 339 339 340 340 341 341 340 339 339 338 339 339 340 340 340 339 336 335 332 326 314 304 295 290 289 289 288 291 290 298 300 298 300 296
332 333 333 334 334 336 337 338 339 338 337 337 338 339 338 338 338 337 337 338 340 340 339 338 336 333 331 329 325 318 303 294 292 285 283 287 289 290 284 290 293 294 297
332 331 333 334 335 337 337 337 337 336 334 335 337 336 336 335 336 336 337 338 338 338 338 336 334 329 326 324 321 313 311 298 285 289 279 276 281 285 283 279 280 297 291
330 329 330 333 334 337 337 336 336 334 333 334 334 334 335 335 336 336 337 337 338 336 335 333 329 325 321 317 313 309 303 298 291 285 279 274 272 275 276 274 277 280 289
326 326 328 330 332 334 334 334 332 332 331 332 333 333 334 334 334 335 335 337 336 334 332 330 327 323 319 317 312 306 300 295 290 288 286 275 271 276 272 271 281 286 287
327 326 328 330 330 331 332 332 331 330 330 331 330 331 333 333 334 334 335 335 334 332 330 327 324 320 317 314 309 304 296 288 284 273 284 287 281 275 275 279 276 278 280
321 321 324 325 326 328 331 330 329 328 328 329 330 330 332 332 333 333 333 333 333 330 329 325 321 317 313 310 306 301 292 287 280 272 265 273 277 275 274 278 278 275 275
318 322 324 326 326 328 329 327 327 326 328 328 330 330 332 331 331 331 332 332 330 329 326 322 319 315 311 307 304 297 290 284 276 270 263 262 271 269 273 273 273 270 269
319 320 322 323 325 326 325 324 325 325 326 327 328 329 331 330 330 331 330 330 329 328 325 320 317 314 310 305 303 296 291 283 277 272 267 262 263 268 270 271 269 265 265
316 318 319 321 323 321 323 323 323 324 325 326 328 329 329 329 329 329 329 327 327 327 324 320 317 313 309 305 301 296 290 287 282 275 271 264 259 264 269 268 266 261 262
315 316 318 320 319 321 322 322 322 324 324 325 327 328 328 328 327 328 327 328 326 326 324 320 316 312 309 306 303 297 293 289 283 277 272 269 268 267 267 266 265 260 257
316 316 317 317 318 319 321 320 321 322 323 324 326 326 326 325 326 326 328 327 326 324 323 318 315 312 309 306 302 299 293 290 285 278 275 272 270 265 260 261 259 256 253
314 315 314 315 318 318 319 320 321 321 322 323 324 325 325 325 324 326 328 326 325 323 321 317 315 313 311 308 304 300 295 291 284 279 273 270 267 261 260 260 254 252 254
312 312 313 315 316 316 317 319 320 321 321 322 323 323 324 324 325 326 325 324 323 323 320 318 317 315 313 309 304 300 295 289 284 279 273 270 267 263 262 255 250 249 248
311 312 312 313 314 315 317 319 319 319 320 320 321 321 322 323 324 326 325 324 322 322 319 319 319 318 314 309 305 302 297 291 286 279 276 271 267 263 258 256 251 247 243
310 310 311 313 314 316 316 317 316 318 318 319 319 320 322 323 324 326 324 323 322 321 320 320 320 318 314 310 306 302 296 291 284 281 276 270 265 262 257 250 246 243 235
308 310 310 312 313 314 313 315 317 316 318 318 319 320 321 323 323 323 323 322 321 321 321 321 320 317 313 309 305 300 295 290 285 278 274 271 268 261 254 248 245 240 235
308 308 309 310 311 313 313 313 314 315 317 317 318 319 321 320 322 321 320 321 321 321 322 321 319 316 311 304 299 296 294 290 284 277 272 268 264 259 254 247 242 239 233
307 307 308 310 310 311 312 312 314 315 316 317 319 319 320 320 321 320 319 320 320 321 321 320 319 315 308 304 300 295 292 288 284 277 269 263 259 254 251 244 238 237 233
306 306 307 307 308 310 310 312 312 314 315 316 317 318 318 318 319 318 319 319 320 321 320 319 318 312 307 305 301 296 290 284 278 272 270 263 255 252 246 241 237 232 229
304 304 304 305 307 308 310 311 312 311 314 315 317 316 317 318 317 316 318 318 320 321 319 319 316 311 308 308 303 298 292 287 280 273 263 258 257 249 243 240 238 232 229
303 304 303 303 306 307 309 311 311 311 312 312 313 315 315 314 315 316 318 318 320 319 318 318 316 312 312 310 305 299 295 290 283 276 265 255 250 248 241 237 234 234 231
303 303 304 304 305 307 306 308 309 309 311 313 313 314 312 312 314 316 316 318 318 318 317 318 316 314 316 313 307 301 293 289 285 278 269 259 250 244 241 234 232 230 231
302 301 302 304 305 307 307 306 309 308 311 311 311 310 312 312 314 315 315 317 316 317 317 318 318 317 318 314 308 302 295 291 287 279 270 261 251 244 239 234 229 229 227
300 301 301 303 302 305 307 306 308 310 309 309 309 309 311 312 314 313 313 314 315 315 316 319 318 318 317 314 312 307 306 299 297 292 277 265 255 246 240 233 228 226 227
Height
10847 10841 10835 10829 10822 10815 10807 10799 10791 10782 10772 10763 10754 10746 10735 10725 10716 10706 10694 10681 10670 10656 10644 10631 10619 10611 10602 10593 10587 10580 10574 10570 10567 10550 10548 10545 10543 10540 10534 10529 10524 10520 10514
10841 10835 10828 10822 10815 10807 10800 10792 10783 10774 10765 10754 10745 10734 10723 10714 10703 10693 10681 10668 10652 10638 10625 10612 10600 10592 10584 10577 10570 10563 10558 10553 10550 10544 10531 10528 10527 10525 10521 10515 10511 10508 10502
10834 10828 10821 10814 10806 10799 10790 10782 10774 10765 10756 10745 10735 10723 10712 10700 10690 10678 10666 10650 10634 10618 10604 10592 10581 10572 10562 10557 10552 10545 10539 10535 10531 10528 10518 10510 10507 10506 10507 10502 10496 10492 10490
10826 10819 10812 10805 10796 10788 10779 10770 10762 10754 10745 10733 10721 10710 10700 10687 10673 10660 10647 10629 10613 10599 10585 10571 10556 10547 10539 10534 10529 10523 10520 10515 10511 10507 10503 10493 10487 10485 10488 10485 10481 10477 10473
10816 10809 10802 10794 10784 10776 10767 10758 10749 10741 10730 10720 10708 10694 10682 10669 10656 10641 10626 10612 10597 10581 10566 10554 10541 10528 10518 10512 10508 10499 10496 10492 10488 10485 10480 10477 10469 10467 10468 10468 10464 10462 10459
10807 10798 10790 10782 10772 10764 10754 10745 10735 10726 10716 10703 10690 10678 10662 10648 10634 10621 10608 10594 10577 10563 10547 10533 10519 10507 10496 10487 10481 10476 10470 10465 10463 10461 10459 10455 10450 10450 10448 10447 10444 10441 10441
10795 10787 10780 10771 10760 10751 10740 10730 10720 10710 10699 10686 10673 10660 10645 10628 10613 10600 10587 10576 10559 10540 10522 10506 10493 10477 10465 10458 10451 10447 10441 10439 10437 10434 10439 10433 10432 10427 10429 10426 10425 10423 10423
10783 10774 10766 10758 10749 10738 10726 10716 10705 10695 10683 10670 10654 10639 10626 10607 10593 10579 10565 10556 10540 10518 10499 10481 10465 10452 10439 10432 10426 10418 10412 10411 10409 10410 10412 10411 10407 10403 10405 10405 10404 10404 10405
10767 10758 10750 10743 10733 10722 10712 10701 10691 10679 10666 10651 10636 10620 10605 10589 10575 10564 10547 10532 10517 10498 10476 10456 10439 10426 10411 10405 10402 10392 10385 10382 10379 10381 10383 10385 10383 10379 10378 10383 10383 10386 10387
10752 10742 10733 10725 10718 10708 10699 10688 10676 10663 10651 10637 10622 10602 10584 10570 10549 10535 10522 10506 10492 10474 10451 10429 10413 10402 10388 10378 10373 10367 10363 10354 10353 10354 10355 10356 10357 10357 10356 10358 10363 10367 10371
10737 10727 10719 10710 10701 10692 10683 10670 10659 10647 10633 10617 10603 10585 10566 10548 10533 10513 10497 10483 10464 10444 10423 10405 10388 10373 10363 10353 10346 10342 10339 10334 10331 10330 10331 10332 10331 10333 10333 10336 10340 10346 10352
10720 10710 10701 10692 10683 10673 10663 10648 10636 10625 10612 10596 10583 10568 10547 10530 10512 10498 10477 10455 10433 10414 10396 10378 10363 10351 10340 10330 10323 10318 10315 10313 10310 10308 10307 10307 10309 10312 10314 10317 10320 10327 10333
10701 10692 10683 10673 10663 10652 10643 10631 10619 10604 10592 10578 10562 10549 10534 10512 10491 10471 10451 10425 10407 10392 10375 10359 10343 10332 10321 10311 10301 10296 10294 10292 10290 10290 10285 10286 10288 10293 10296 10298 10302 10307 10314
10684 10675 10666 10656 10644 10631 10621 10609 10599 10583 10569 10555 10541 10527 10509 10490 10470 10447 10426 10405 10386 10369 10354 10338 10325 10313 10302 10292 10284 10277 10275 10272 10269 10269 10268 10267 10269 10273 10277 10281 10285 10289 10296
10666 10658 10648 10638 10628 10616 10602 10590 10577 10559 10548 10536 10519 10504 10488 10466 10443 10422 10400 10379 10362 10348 10332 10318 10304 10292 10283 10274 10266 10260 10256 10254 10251 10250 10249 10249 10251 10255 10258 10264 10268 10272 10278
10649 10638 10628 10618 10606 10595 10584 10569 10549 10539 10522 10509 10493 10478 10460 10440 10418 10398 10375 10355 10339 10326 10311 10298 10284 10273 10263 10255 10248 10244 10240 10238 10236 10233 10233 10233 10235 10238 10242 10246 10251 10257 10262
10629 10619 10608 10597 10586 10575 10561 10550 10534 10512 10499 10484 10466 10452 10434 10413 10391 10373 10351 10334 10320 10307 10294 10280 10267 10256 10246 10239 10232 10227 10223 10222 10221 10219 10218 10218 10221 10225 10228 10232 10235 10241 10248
10605 10598 10588 10577 10566 10554 10539 10526 10511 10495 10475 10458 10440 10425 10406 10387 10370 10352 10332 10317 10302 10289 10276 10262 10251 10242 10232 10224 10217 10212 10209 10206 10206 10205 10204 10206 10209 10212 10215 10219 10223 10228 10234
10584 10574 10565 10555 10543 10531 10516 10500 10486 10469 10456 10437 10417 10395 10381 10362 10347 10329 10313 10299 10285 10271 10260 10249 10239 10230 10221 10212 10205 10199 10195 10193 10191 10191 10191 10192 10195 10199 10203 10207 10211 10216 10223
10562 10552 10542 10530 10517 10505 10492 10475 10461 10444 10427 10410 10393 10373 10354 10337 10322 10306 10292 10279 10268 10255 10244 10234 10225 10216 10207 10199 10194 10188 10183 10181 10179 10178 10178 10179 10182 10186 10190 10194 10199 10204 10210
10535 10525 10514 10505 10493 10481 10466 10450 10433 10419 10403 10383 10365 10352 10331 10316 10300 10286 10271 10261 10250 10239 10229 10218 10210 10202 10194 10186 10179 10173 10168 10166 10164 10164 10165 10166 10168 10172 10177 10182 10187 10191 10197
10509 10498 10488 10478 10469 10455 10438 10422 10406 10392 10378 10359 10344 10327 10310 10294 10279 10265 10253 10242 10233 10222 10214 10204 10195 10187 10180 10172 10164 10157 10152 10150 10149 10150 10151 10151 10153 10158 10163 10168 10173 10178 10185
10481 10471 10461 10448 10438 10424 10410 10393 10378 10364 10350 10334 10317 10302 10289 10275 10260 10247 10235 10225 10216 10206 10198 10190 10182 10172 10164 10157 10151 10145 10138 10135 10135 10135 10136 10138 10139 10142 10148 10155 10160 10165 10172
10453 10438 10425 10415 10405 10394 10380 10366 10351 10337 10321 10306 10293 10278 10265 10253 10240 10228 10218 10209 10200 10192 10183 10176 10167 10159 10151 10144 10138 10133 10127 10123 10121 10121 10122 10124 10126 10129 10133 10140 10146 10152 10158
10419 10407 10395 10381 10374 10362 10348 10333 10318 10301 10293 10279 10269 10255 10245 10232 10220 10210 10201 10194 10186 10177 10168 10161 10154 10146 10138 10132 10126 10121 10116 10112 10109 10108 10108 10110 10113 10116 10119 10126 10132 10138 10145
10387 10375 10363 10349 10338 10330 10315 10301 10289 10277 10264 10256 10246 10235 10224 10212 10202 10193 10186 10180 10172 10164 10156 10149 10142 10134 10126 10120 10114 10108 10103 10100 10098 10097 10097 10097 10100 10103 10106 10111 10118 10124 10131